www.pogodaiklimat.ru

Погода и климат >> Архив погоды >> Канада >> Montreal-Est


ПОГОДА в Montreal-Est

  • Прогноз погоды в Montreal-Est
  • Монитор погоды в Montreal-Est
  • Климат города

АРХИВ ПОГОДЫ в Montreal-Est

Время (UTC), дата Ветер
(напр.,м/с)
 
Видим.   Явления Облачность Т
(С)
Тd
(С)
f
(%)
Тe
(С)
Тes
(С)
Комфортность P
(гПа)
Po
(гПа)
Тmin
(С)
Tmax
(С)
R
(мм)
R24
(мм)
S
(см)
09 11.08 ЮЗ 2 16 км ясно +13.0 +13.0 100 +12 +12 1013.1 986.2
12 11.08 Ю 3 16 км ясно +17.7 +14.8 83 +18 +21 1013.7 986.9 +12.1 +27.5
15 11.08 ЮЗ 3 16 км ясно +21.4 +14.9 66 +24 +36 комфорт 1013.1 986.2
18 11.08 ЮЗ 5 16 км ясно +25.8 +15.1 52 +29 +38 душно 1012.1 985.2 +12.1 +25.8
21 11.08 ЮЗ 6 16 км ясно +26.6 +15.5 51 +30 +32 душно 1009.8 983.0
00 12.08 ЮЗ 5 9000 м дым ясно +26.0 +16.0 54 +29 +29 душно 1008.3 981.6 +12.1 +26.9
03 12.08 ЮЗ 5 14 км ясно +24.3 +16.3 61 +28 +28 душно 1008.7 982.1
06 12.08 З 3 12 км 9/0
[]
+22.4 +16.7 70 +27 +27 душно 1010.0 983.4 +12.1 +26.9 21
09 12.08 С 3 14 км ясно +19.5 +15.2 76 +22 +22 комфорт 1012.1 985.4
12 12.08 СВ 2 16 км ясно +15.4 +9.3 67 +15 +18 1015.3 988.4 +15.4 +26.9
15 12.08 СВ 4 16 км ясно +17.9 +8.8 55 +18 +26 1018.7 991.7
18 12.08 СВ 4 16 км ясно +19.9 +9.3 50 +21 +32 комфорт 1019.4 992.4 +15.4 +22.4
21 12.08 СВ 4 16 км ясно +20.6 +10.2 51 +22 +26 комфорт 1018.8 991.8
00 13.08 СВ 3 16 км ясно +17.4 +10.5 64 +17 +17 1018.7 991.5 +15.4 +21.3
03 13.08 СВ 4 16 км 10/10 1500 м
[]
+15.5 +10.1 70 +15 +15 1019.2 992.0
06 13.08 В 5 8000 м сильн. дождь {осадки} 10/10 1000 м
[]
+11.2 +11.1 99 +8 +8 1019.0 991.8 +11.2 +22.4 10 4
09 13.08 СВ 3 н/о 10/10 100 м
[]
+10.6 +10.6 100 +8 +8 1019.4 992.2
12 13.08 В 5 н/о 10/10 300 м
[]
+9.9 +9.8 99 +7 +7 1016.3 989.1 +9.8 +22.4
15 13.08 В 5 н/о 10/10 200 м
[]
+9.6 +9.6 100 +6 +6 1014.6 987.3
18 13.08 В 5 н/о 10/10 200 м
[]
+9.0 +8.8 99 +5 +5 1015.1 987.7 +8.9 +11.8
21 13.08 В 6 н/о 10/10 200 м
[]
+8.3 +8.3 100 +4 +4 1009.2 981.9
00 14.08 СВ 3 н/о 10/10 200 м
[]
+8.7 +8.7 100 +6 +6 1009.1 981.8 +8.1 +9.9
03 14.08 СВ 3 н/о 10/10 100 м
[]
+7.8 +7.8 100 +5 +5 1009.1 981.8
06 14.08 СВ 3 н/о 10/10 100 м
[]
+8.4 +8.4 100 +5 +5 1010.3 983.0 +7.7 +11.8 14
09 14.08 СВ 4 н/о 10/10 100 м
[]
+6.5 +6.5 100 +2 +2 1013.6 986.1
12 14.08 СВ 4 н/о 10/10 300 м
[]
+6.4 +6.4 100 +3 +3 1015.8 988.3 +6.2 +11.8
15 14.08 СВ 3 н/о 10/10 300 м
[]
+8.5 +6.4 87 +6 +6 1017.9 990.3
18 14.08 СВ 1 н/о 10/10 1000 м
[]
+10.9 +6.2 73 +11 +11 1018.6 991.1 +6.2 +11.7
21 14.08 Ю 2 н/о 10/10 1000 м
[]
+12.1 +5.9 66 +11 +11 1018.7 991.2
00 15.08 Ю 2 н/о ясно +11.5 +6.4 71 +10 +10 1018.5 991.0 +6.2 +12.4
03 15.08 Ю 5 н/о 5/0
[]
+11.5 +5.9 68 +9 +9 1017.8 990.3
06 15.08 Ю 5 н/о 10/0
[]
+11.4 +6.3 71 +9 +9 1017.1 989.7 +6.2 +12.4 7
09 15.08 Ю 6 н/о 3/0
[]
+10.5 +7.0 79 +7 +7 1016.5 989.1
12 15.08 Ю 7 н/о ясно +10.1 +7.5 84 +6 +7 1015.8 988.4 +9.7 +12.4
15 15.08 ЮЗ 6 н/о 3/3 1000 м
[]
+13.6 +8.7 72 +12 +16 1014.4 987.2
18 15.08 ЮЗ 6 н/о ясно +18.6 +11.0 61 +19 +25 1012.3 985.2 +9.7 +18.6
21 15.08 ЮЗ 5 16 км ясно +20.3 +11.1 55 +22 +24 комфорт 1010.5 983.5
00 16.08 ЮЗ 4 16 км ясно +20.0 +12.0 60 +22 +22 комфорт 1009.4 982.4 +9.7 +20.9
03 16.08 Ю 3 16 км ясно +17.7 +12.6 72 +18 +18 1008.9 981.9
06 16.08 ЮЗ 4 16 км ясно +18.2 +12.5 69 +18 +18 1007.2 980.4 +9.7 +20.9 12
09 16.08 ЮЗ 4 16 км ясно +17.6 +12.9 74 +17 +17 1005.8 979.1
12 16.08 З 4 16 км ясно +17.3 +13.3 77 +17 +19 1006.8 980.0 +17.2 +20.9
15 16.08 С 5 16 км ясно +21.4 +15.0 67 +25 +32 комфорт 1009.3 982.5
18 16.08 С 4 16 км 10/10 600 м
[]
+17.4 +12.5 73 +17 +17 1014.0 987.0 +17.2 +22.1
21 16.08 С 4 16 км 10/10 600 м
[]
+16.4 +10.3 67 +16 +16 1016.9 989.8
00 17.08 С 3 16 км 10/10 1000 м
[]
+15.4 +9.0 66 +15 +15 1019.1 991.9 +15.4 +22.1
03 17.08 С 2 16 км 5/5 1000 м
[]
+12.0 +7.7 75 +11 +11 1021.1 993.9
06 17.08 СВ 2 16 км ясно +8.6 +6.4 86 +7 +7 1022.5 995.1 +8.5 +22.1 16
09 17.08 В 2 16 км ясно +6.7 +6.7 100 +4 +4 1024.3 996.7
12 17.08 В 2 16 км ясно +9.2 +8.6 96 +8 +11 1024.6 997.1 +6.4 +22.1
15 17.08 Ю 2 16 км ясно +13.8 +7.7 67 +13 +26 опасность
простуды
1024.5 997.0
18 17.08 ЮЗ 2 16 км ясно +16.3 +3.3 42 +17 +33 опасность
простуды
1023.1 995.6 +6.4 +16.4
21 17.08 ЮВ 2 16 км ясно +18.9 +6.3 44 +20 +25 1021.0 993.6
00 18.08 ЮВ 2 16 км ясно +19.1 +8.6 51 +20 +20 1019.3 992.0 +6.4 +19.7
03 18.08 Ю 2 16 км 3/0
[]
+12.9 +10.4 85 +12 +12 1019.1 991.8

 

Местоположение метеостанции Montreal-Est (Канада): широта 45.55 долгота -73.55 высота над уровнем моря 51 м.

В архиве по умолчанию представлена погода в Montreal-Est за последнюю неделю. Архивные данные за месяц целиком и за предыдущие месяцы, начиная с января 2011 года, Вы можете получить, выбрав интересующий диапазон дат из раскрывающегося списка и нажав кнопку "Ввод!".


*Определитесь, кто Вы:
робот инопланетянин человек

Внимание! Время в таблицах - всемирное. Для получения местного времени необходимо прибавить поправку, которая в Montreal-Est равна -5 ч.

Смотрите также архив погоды в соседних городах и на ближайших метеорологических станциях:

Погода в Mctavish (Канада) (6 км)
Погода в Saint Hubert Arpt (Канада) (11 км)
Погода в Montreal (Канада) (18 км)
Погода в Varennes (Канада) (23 км)
Погода в Lassomption Cda (Канада) (31 км)
Погода в L`acadie (Канада) (32 км)
Погода в Ste Anne de Bellevu (Канада) (32 км)
Погода в Ste Clotilde (Канада) (43 км)
Погода в Riguad 2 (Канада) (58 км)
Погода в Saint Polycarpe (Канада) (65 км)

Пояснения к столбцам:

Ветер - указаны скорость ветра в м/с - средняя за 10 мин, порывы в срок и между сроками (в фигурных скобках) и направление, откуда дует ветер: С - северный, СВ - северо-восточный, В - восточный, ЮВ - юго-восточный, Ю - южный, ЮЗ - юго-западный, З - западный, СЗ - северо-западный.
Видимость - горизонтальная дальность видимости в метрах или километрах. При видимости от 1 до 10 км при отсутствии осадков обычно наблюдается дымка, при ухудшении видимости до 1 км и менее - туман. В сухую погоду видимость может ухудшаться дымом, пылью или мглою.
Явления - указаны атмосферные явления, наблюдавшиеся в срок или в последний час перед сроком; фигурными скобками обозначены явления, наблюдавшиеся между сроками (за 1-3 часа до срока); квадратными скобками обозначены град или гололедные отложения с указанием их диаметра в мм.
Облачность - указаны через наклонную черту общая и нижняя облачность в баллах и высота нижней границы облаков в метрах; квадратными скобками обозначены формы облаков: Ci - перистые, Cs - перисто-слоистые, Cc - перисто-кучевые, Ac - высококучевые, As - высокослоистые, Sc - слоисто-кучевые, Ns - слоисто-дождевые, Cu - кучевые, Cb - кучево-дождевые. Подробнее классификацию облаков см. в Атласе облаков (PDF).
T - Температура воздуха - температура, измеренная на высоте 2 м над землей.
Td - Температура точки росы - температура, при понижении до которой содержащийся в воздухе водяной пар достигнет насыщения.
f - Относительная влажность воздуха - влажноcть воздуха, измеренная на высоте 2 м над землей.
Te - Эффективная температура - температура, которую ощущает одетый по сезону человек в тени. Характеристика душности погоды. При расчете учитывается влияние влажности воздуха и скорости ветра на теплоощущения человека.
Tes - Эффективная температура на солнце - температура, которую ощущает человек, с поправкой на солнечный нагрев. Характеристика знойности погоды. Зависит от высоты солнца над горизонтом, облачности и скорости ветра. Ночью, в пасмурную погоду, а также при ветре 12 м/с и более поправка равна нулю.
P - Атмосферное давление - приведенное к уровню моря атмосферное давление.
Po - Атмосферное давление - измеренное на уровне метеостанции атмосферное давление.
Tmin - Минимальная температура - минимум температуры воздуха на высоте 2 м над землей.
Tmax - Максимальная температура - максимум температуры воздуха на высоте 2 м над землей.
R - Количество осадков - Количество выпавших осадков за период времени, мм. При наведении курсора мыши на число - период времени, за который выпало указанное количество осадков.
R24 - Количество осадков - Количество выпавших осадков за 24 часа, мм.
S - Снежный покров - Высота снежного покрова, см. При наведении курсора мыши на число - состояние снежного покрова и степень покрытия местности в баллах.